Find Starlink 11381

NORAD ID: 62094 Int'l Des: 2024-220 Owner: SPXS Country: US Constellation: starlink operational
LEOCIRCULAR

Live-Position

3D-Globus wird geladen...

Über Starlink 11381

Beschreibung wird geladen...

Nächste Überflüge

Passes for default location (London). Set your location on the main map for personalized predictions.

Höhenverlauf

Loading altitude history...

Zweizeiliger Elementsatz

1 62094U 24220G 26127.18422223 .00149318 00000-0 11410-2 0 9998
2 62094 42.9981 50.4152 0000333 313.4337 46.6503 15.70951138 84158
Epoch: 7. Mai 2026 • Age: 14 hours

Aktueller Status

Höhe 359.4 km
Geschwindigkeit 7.69 km/s
Subsatellitenpunkt -18.50°S, 110.05°W
Startdatum 25. Nov. 2024
Alter 1.4 years
Typ internet

Technische Details

Klassifizierung Payload
Masse 960.00 kg
Trockenmasse 910.00 kg
Gesamtmasse 960.00 kg
Länge 0.30 m
Durchmesser 4.10 m
Spannweite 29.00 m
Form Box + pan
Hersteller SPXS
Bus-Typ Starlink V2MD
Phasenstatus In Orbit
Besitzer/Staat SPXS/US

Most Searched